Location: Pine Ridge Estates
(42.5164°N, 73.8156°W)
Time: 09:50:18
(UTC+00:00)

ISS - Visible Passes

Search period start: 11 October 2024 00:00
Search period end: 21 October 2024 00:00
Orbit: 411 x 424 km, 51.6° (Epoch: 10 October)

Date Brightness Start Highest point End Pass type
(mag) Time Alt. Az. Time Alt. Az. Time Alt. Az.
14 Oct -0.7 10:34:37 10° SSE 10:36:22 14° SE 10:38:08 10° E visible
16 Oct -2.2 10:32:29 10° SSW 10:35:34 36° SE 10:38:39 10° ENE visible
17 Oct -1.4 09:44:19 10° S 09:46:55 21° SE 09:49:31 10° E visible
18 Oct -0.9 08:57:32 12° SE 08:58:11 12° SE 08:59:39 10° ESE visible
18 Oct -3.8 10:31:07 10° WSW 10:34:26 83° NW 10:37:47 10° NE visible
19 Oct -3.3 09:44:03 30° SSW 09:45:26 57° SE 09:48:42 10° ENE visible
20 Oct -1.6 08:57:21 26° ESE 08:57:21 26° ESE 08:59:21 10° ENE visible
20 Oct -3.0 10:30:14 12° W 10:32:59 37° NNW 10:36:07 10° NE visible
